GFSGBSN_850_temp_183.txt.gz
Temp
11 11 10 10 10 10 9 10 10 10 10 10 11 11 11 11 12 12 12 12 12 12 12 13 13 13 13 12 14 16 16 16 16 16 16 16 16 16 17 16 16 17 17 17 17 17 17
11 10 10 10 10 10 9 10 9 9 10 10 10 11 11 11 11 11 12 12 12 12 12 12 12 13 12 9 16 17 17 16 16 16 16 16 16 16 15 15 16 16 16 16 15 16 17
10 10 11 10 10 10 10 10 9 10 10 9 10 10 10 11 11 11 12 11 11 12 12 12 12 12 11 14 15 16 16 16 16 16 16 16 16 16 15 15 15 16 16 17 17 17 17
10 10 10 10 10 10 10 10 9 10 9 9 9 10 9 10 10 11 11 11 11 11 12 11 11 11 12 14 14 15 14 15 15 16 15 15 15 15 15 15 15 16 15 16 17 16 17
10 10 10 10 10 10 10 9 9 9 9 9 9 9 9 9 9 10 10 11 11 11 12 12 11 10 11 13 14 14 15 15 15 15 15 14 14 14 14 15 15 13 16 15 16 16 17
10 10 10 10 10 10 9 9 8 8 8 8 7 7 7 8 8 9 10 10 11 11 10 10 9 9 12 13 13 14 13 14 14 15 14 14 13 14 13 15 15 15 14 13 15 16 15
10 10 10 10 10 9 8 8 6 7 7 6 6 6 7 7 8 8 10 10 10 9 8 10 9 9 12 12 13 14 13 13 13 14 15 13 14 14 15 15 16 15 14 15 16 15 15
10 9 8 8 7 8 6 6 6 5 5 5 5 5 5 6 7 8 8 7 4 4 3 9 10 8 11 10 9 14 11 12 13 13 13 13 13 14 14 14 13 14 14 14 14 15 14
6 6 6 6 6 5 5 5 5 5 4 4 5 5 6 6 7 6 6 5 4 4 3 6 6 7 9 9 8 10 10 11 12 12 13 13 14 12 12 13 12 12 13 13 13 14 15
5 5 5 5 5 5 4 5 4 4 4 4 4 5 5 5 6 5 5 5 5 5 6 7 8 9 9 9 10 11 11 11 11 11 11 12 14 13 13 12 13 13 13 13 13 13 14
5 5 5 5 5 4 4 4 4 4 4 4 4 4 4 5 5 5 5 5 6 6 7 9 10 10 10 10 11 12 11 10 10 11 11 12 11 11 12 13 14 13 14 13 13 13 12
4 4 4 4 4 4 3 3 3 4 4 4 4 4 4 4 5 5 5 6 6 5 5 9 10 10 11 10 11 11 11 11 11 10 10 10 10 12 12 12 13 13 13 12 12 12 12
4 4 4 3 3 3 2 2 3 3 3 3 3 3 4 4 4 4 5 6 4 4 8 8 9 9 9 9 10 10 10 10 11 10 10 10 10 11 11 12 11 12 12 11 11 11 12
4 4 3 3 3 2 2 2 3 3 3 3 3 3 3 3 3 4 5 4 2 6 6 8 8 9 9 9 9 9 9 9 10 9 9 10 10 10 10 11 11 10 12 11 10 12 13
3 3 3 2 2 2 2 3 3 3 2 2 2 2 3 3 3 3 4 1 4 5 7 6 8 8 9 9 9 10 9 8 9 9 9 8 9 10 10 11 11 10 10 12 10 11 10
2 2 2 2 2 2 2 2 2 2 2 2 2 2 2 2 2 3 2 3 4 4 5 6 5 7 7 8 8 9 9 10 9 9 9 6 6 9 10 10 11 11 11 9 7 8 10
2 2 2 2 2 2 2 2 2 2 2 2 2 2 2 2 1 1 2 2 3 4 5 5 5 5 6 6 7 7 8 9 10 9 9 9 6 7 9 9 8 8 8 7 7 7 8
2 2 2 2 2 2 2 2 2 1 1 1 1 0 1 1 1 1 2 2 3 3 4 4 3 4 4 4 4 5 6 8 8 8 7 8 6 7 8 10 9 7 5 8 6 7 7
2 2 2 2 2 2 2 1 1 1 1 1 0 0 0 1 1 1 1 2 3 3 3 3 3 3 4 4 3 4 5 7 7 7 7 7 6 6 7 8 7 7 7 7 5 4 7
1 1 1 1 1 1 1 1 1 0 0 1 -0 -1 -1 -0 -0 0 0 0 1 1 2 2 3 2 2 3 3 2 3 5 4 6 7 6 6 6 6 8 7 7 6 5 5 5 6
0 1 1 1 1 1 0 0 0 0 0 0 -1 -1 -2 -1 -1 -0 -1 -0 0 0 -0 0 1 1 2 1 2 2 3 2 3 4 6 5 4 5 6 6 7 7 7 7 6 7 6
-0 0 0 0 -0 0 0 -0 0 0 -0 -1 -2 -2 -2 -2 -1 -2 -2 -1 -0 0 1 -0 -0 1 1 0 0 -1 -1 1 2 3 4 4 4 6 5 6 6 5 6 6 7 7 7
-1 -0 -0 -0 -0 -0 -0 -0 -0 -0 -1 -1 -2 -2 -1 -3 -3 -3 -2 -0 -0 -0 0 1 1 0 -0 0 1 -0 -1 -0 0 -0 1 2 3 4 4 6 5 4 5 6 6 7 7
-1 -1 -1 -1 -1 -1 -1 -1 -1 -1 -1 -1 -1 -2 -3 -3 -3 -2 -2 -1 -1 -1 -1 -1 -1 -1 -0 -0 -1 -0 0 1 1 1 1 2 2 3 3 4 3 7 7 7 7 7 7
-1 -1 -1 -1 -1 -1 -1 -1 -1 -1 -2 -2 -2 -2 -2 -4 -3 -2 -2 -2 -2 -2 -2 -2 -2 -1 -1 -2 -2 -2 -1 1 2 1 2 2 2 3 3 4 5 6 6 6 6 7 7
-1 -1 -1 -1 -1 -1 -1 -2 -2 -2 -2 -2 -2 -3 -3 -4 -4 -2 -2 -2 -3 -3 -3 -2 -2 -1 -2 -2 -1 -1 0 3 4 3 3 2 2 3 3 3 3 6 6 6 7 6 6
-2 -2 -2 -2 -2 -2 -2 -2 -2 -2 -3 -3 -3 -3 -4 -4 -3 -3 -3 -3 -3 -4 -3 -3 -2 -1 -1 -1 -1 -0 1 3 2 3 4 2 1 2 3 3 5 6 6 6 5 6 5
-2 -2 -2 -2 -2 -2 -2 -2 -2 -2 -3 -3 -3 -3 -3 -4 -3 -3 -3 -3 -3 -3 -3 -2 -2 -2 -1 -0 0 -0 1 3 3 4 4 3 3 3 3 2 2 5 5 6 7 4 5
-2 -2 -2 -2 -2 -3 -3 -2 -2 -2 -3 -3 -3 -3 -3 -4 -3 -3 -3 -3 -3 -2 -3 -4 -2 -3 -1 -1 -0 -0 1 0 2 2 3 3 4 4 3 4 4 3 6 5 6 5 4

GFSGBSN_850_temp_186.txt.gz
Temp
11 11 11 11 10 10 10 10 10 10 10 10 11 11 11 11 11 11 12 12 13 12 13 13 13 13 14 13 16 16 17 16 16 16 16 17 18 20 21 21 21 21 23 22 21 20 21
11 11 11 11 10 10 10 10 10 9 10 10 11 10 10 11 11 11 11 11 12 13 12 12 13 13 12 14 15 16 17 16 16 15 16 17 18 18 19 20 20 21 20 21 21 21 21
11 11 11 11 10 10 10 11 10 10 10 10 10 10 10 11 11 11 11 11 12 12 12 13 13 12 12 13 16 15 15 15 15 14 15 16 17 17 19 20 19 19 19 21 22 22 22
11 11 11 10 10 10 10 10 10 10 10 10 9 9 9 10 11 11 11 11 11 12 12 12 13 12 13 15 14 15 14 14 15 15 15 14 15 16 18 18 18 19 20 20 23 21 21
11 11 11 10 10 10 10 10 10 10 9 9 9 9 10 10 11 11 10 11 11 11 12 12 12 11 15 13 14 15 14 14 14 14 15 15 15 17 17 18 19 20 20 22 22 22 21
11 11 11 10 10 10 10 10 9 10 9 9 8 9 9 9 10 11 10 11 11 11 11 11 10 9 13 14 13 13 13 14 14 15 15 15 16 18 18 20 19 22 21 20 19 22 20
10 10 10 9 10 10 10 10 10 9 8 7 7 8 8 9 9 10 10 10 9 9 8 12 12 12 13 12 14 13 12 13 14 15 17 17 18 18 20 20 20 20 20 20 21 21 20
10 10 10 9 10 10 10 9 8 6 6 5 5 7 7 8 8 9 9 9 8 7 9 9 9 8 9 9 10 12 12 13 15 16 18 17 17 19 19 18 18 18 18 19 20 20 18
10 10 9 9 10 9 7 6 5 4 4 4 4 5 6 7 7 8 8 7 7 7 8 10 8 9 10 9 11 13 12 13 15 16 17 17 19 17 16 17 17 17 17 18 18 19 19
8 10 9 9 6 5 4 4 5 4 4 3 4 5 5 6 6 6 5 6 6 6 11 13 11 11 10 10 12 12 11 13 14 15 16 16 17 17 17 16 18 17 19 18 17 17 17
8 8 6 5 5 5 5 4 3 4 4 4 4 5 5 6 6 5 5 6 6 6 11 12 12 10 11 12 12 12 11 12 13 14 14 16 15 15 15 16 17 17 18 17 17 17 17
5 5 5 4 4 4 4 4 3 3 3 3 4 4 5 5 5 5 6 6 6 10 10 12 12 12 13 12 13 13 13 12 12 13 14 14 15 14 15 16 16 16 15 15 16 16 15
4 4 4 4 4 4 3 3 3 3 2 2 3 3 4 4 4 5 6 6 8 9 11 11 11 12 12 12 13 13 13 14 13 12 14 15 14 15 14 14 15 14 14 13 14 15 15
3 3 3 2 2 2 2 3 3 3 2 3 3 3 4 4 4 5 5 8 6 9 9 10 10 11 11 12 12 12 13 13 13 12 13 12 13 13 13 13 14 15 14 13 13 15 16
3 3 2 2 2 2 2 2 2 2 2 2 3 3 3 4 4 5 5 5 8 9 9 9 10 11 12 12 11 11 12 12 12 12 11 10 11 12 13 13 13 14 12 15 13 14 14
3 3 3 2 2 2 2 2 2 3 3 3 3 3 3 3 4 4 5 6 7 7 7 8 7 9 9 10 9 10 11 12 12 12 11 9 8 11 11 10 13 13 14 11 12 10 11
3 3 3 2 2 2 2 2 2 2 2 2 3 2 2 2 3 3 4 6 6 6 6 6 7 7 8 8 8 8 9 11 11 11 11 10 9 8 11 10 8 6 8 8 8 8 9
2 2 2 2 2 2 2 2 2 2 2 2 2 2 1 1 2 2 3 5 5 6 5 6 6 6 6 6 6 7 7 9 10 9 9 9 8 6 9 11 12 10 9 8 5 7 7
1 2 2 2 2 2 2 2 2 2 2 2 1 1 1 1 2 3 3 5 5 5 6 6 5 6 7 6 5 6 7 8 8 8 8 9 8 7 8 10 11 10 10 10 7 6 7
1 1 1 1 2 2 2 2 1 1 1 2 0 1 -1 0 0 3 3 3 3 3 4 4 5 5 5 4 6 4 6 7 6 6 6 6 7 7 7 9 11 9 6 7 5 5 6
1 1 1 1 2 1 1 1 1 1 1 1 -1 1 2 1 1 1 1 2 2 2 2 2 3 4 3 1 4 4 4 4 4 4 4 4 4 7 8 9 9 9 9 9 8 9 8
1 1 1 1 1 1 1 1 1 1 0 1 -1 -0 -1 2 1 1 1 2 3 3 2 3 2 3 3 2 3 2 3 3 3 4 3 3 4 5 6 8 9 8 9 9 9 9 10
0 0 1 0 0 0 0 -0 0 0 -0 -0 -1 -1 1 0 0 0 2 3 3 2 3 2 3 3 2 3 3 2 2 2 2 2 3 1 2 4 5 8 8 6 8 9 8 10 9
-0 -0 -0 -0 -0 -0 -0 -1 -0 -0 -0 0 -0 -1 0 1 1 2 1 2 2 2 2 2 2 2 2 1 1 1 1 2 2 3 3 3 3 3 3 6 4 9 11 11 10 10 11
-1 -1 -1 -1 -1 -1 -1 -1 -1 -1 -1 -1 -1 -1 -0 1 2 1 1 1 1 1 1 1 1 1 1 0 1 1 2 2 3 5 4 4 4 3 3 5 7 9 10 9 8 9 11
-1 -1 -1 -1 -1 -1 -1 -1 -1 -1 -1 -2 -2 -2 -2 -0 1 1 1 1 1 1 1 1 0 -0 -0 1 0 0 2 4 4 6 6 4 3 3 4 3 4 9 11 11 10 7 11
-1 -1 -1 -1 -1 -1 -1 -1 -2 -2 -2 -2 -2 -2 -2 -2 -1 -1 0 0 -1 -0 0 0 -0 0 -0 0 1 2 2 4 2 4 5 4 3 2 3 4 6 10 9 9 6 8 11
-2 -2 -2 -2 -2 -2 -2 -2 -2 -2 -2 -2 -2 -3 -3 -2 -1 -2 -2 -1 -1 -1 -1 -0 -0 -0 -0 -0 2 1 2 3 3 5 4 4 5 3 4 3 4 9 9 8 10 9 9
-2 -2 -2 -2 -2 -2 -2 -2 -2 -2 -2 -3 -3 -3 -3 -3 -2 -2 -2 -2 -2 -1 -2 -2 -1 -1 -0 1 1 1 2 2 3 3 5 3 6 6 5 4 4 5 8 8 8 8 8

GFSGBSN_850_temp_189.txt.gz
Temp
12 12 12 12 11 11 11 11 11 11 11 11 11 11 11 12 12 13 13 13 13 13 13 13 13 13 14 16 18 18 18 18 17 17 18 19 20 22 23 25 25 25 25 25 25 25 24
12 11 11 11 11 11 11 11 11 11 11 10 10 11 11 11 12 12 13 13 13 13 13 13 14 13 12 16 17 17 17 16 17 17 18 19 20 21 21 22 23 24 24 24 24 24 24
12 11 11 11 11 11 10 10 10 10 10 10 10 10 10 11 11 11 11 12 12 12 13 13 13 13 12 15 17 16 16 16 16 16 17 18 19 20 21 22 22 22 22 23 24 25 25
12 11 11 12 11 11 11 10 10 10 10 11 10 10 10 10 10 11 11 11 12 12 13 13 13 12 13 16 15 15 16 16 16 16 16 17 17 18 20 21 21 21 22 22 25 26 25
11 11 11 11 11 11 11 10 10 10 10 10 10 10 10 10 10 10 10 11 11 12 13 12 12 11 16 15 15 16 15 17 16 16 16 16 17 19 20 21 21 22 22 23 25 26 25
11 11 11 11 11 11 10 10 10 10 10 9 10 10 10 9 10 10 10 10 11 11 12 11 10 11 14 17 16 14 15 15 17 17 17 17 18 20 21 22 21 23 24 25 24 25 25
11 11 11 11 10 10 10 10 10 10 10 10 10 9 9 8 9 10 9 9 10 10 10 15 16 16 16 16 14 15 16 15 16 17 19 20 20 20 22 23 23 23 23 23 24 25 24
11 11 11 11 11 10 10 9 9 10 10 10 10 8 7 7 8 9 9 11 11 10 14 14 13 13 13 13 13 14 16 15 17 18 20 20 20 21 22 23 22 22 22 22 23 24 23
9 10 10 10 10 10 10 9 9 10 10 9 7 6 6 5 6 7 9 9 9 10 12 15 13 13 13 12 14 15 15 16 17 18 19 19 21 22 20 21 20 21 20 20 21 22 23
9 9 9 10 10 9 9 8 9 9 7 5 3 4 5 5 5 7 8 6 9 8 14 16 13 13 12 12 14 14 14 15 17 17 19 19 21 20 20 20 20 19 21 21 21 21 20
10 10 9 9 9 9 8 9 8 6 5 4 4 4 4 5 6 7 7 6 6 6 12 16 14 13 13 14 15 15 14 14 16 18 16 18 19 18 17 19 20 19 20 20 20 19 19
10 10 10 9 8 8 8 7 5 4 4 3 3 3 3 4 5 6 6 7 6 10 11 14 15 15 15 15 15 15 15 14 15 16 17 17 18 17 16 18 17 17 17 18 18 18 16
10 9 8 8 6 5 4 4 4 3 3 3 3 2 2 4 4 5 6 6 9 10 14 14 14 14 15 15 16 16 16 16 16 16 16 18 18 18 17 16 18 17 16 15 16 16 17
7 7 5 5 4 4 4 3 3 3 3 2 2 1 1 2 3 5 5 8 7 13 14 13 13 13 14 15 15 15 15 15 17 15 15 15 16 19 17 15 16 17 17 15 14 16 18
5 4 4 4 3 3 3 3 2 2 1 1 1 1 2 3 4 5 7 6 9 11 12 11 12 12 14 14 13 14 14 14 15 15 12 13 14 15 15 15 15 15 15 17 15 16 15
4 4 3 3 3 2 2 1 1 1 1 1 2 2 2 4 4 5 6 7 9 9 9 9 10 11 11 13 13 12 12 14 14 14 14 12 10 13 14 13 14 13 13 11 13 10 12
4 3 2 2 1 1 1 1 1 1 1 2 2 3 2 3 4 5 5 7 9 8 8 8 9 10 10 10 11 11 11 12 12 12 13 11 10 9 12 11 12 13 11 7 6 7 9
3 3 2 2 1 1 1 1 1 1 2 2 3 3 1 3 4 4 5 8 7 8 7 8 8 9 9 9 9 9 9 10 11 11 10 11 9 9 10 13 13 12 10 10 7 7 8
3 3 2 2 2 2 2 2 1 1 2 3 2 1 1 2 4 4 7 7 7 7 8 8 8 8 9 8 7 9 9 10 10 10 9 7 7 7 9 11 13 12 12 12 12 9 6
2 1 1 1 2 1 1 1 1 2 2 3 1 1 0 1 3 5 5 5 5 6 7 7 8 7 7 7 8 6 7 9 9 6 6 6 7 6 6 8 11 10 11 11 9 6 7
1 1 1 1 1 1 1 2 2 2 2 2 1 2 3 2 1 4 5 5 6 4 5 5 6 6 7 4 6 6 7 8 8 8 7 6 4 7 8 9 9 9 10 11 8 7 5
0 1 1 1 1 1 1 1 1 1 1 2 0 2 2 4 4 4 3 4 5 5 5 5 5 6 6 4 5 4 5 5 5 7 6 7 4 5 6 7 8 8 9 9 10 11 11
1 1 1 1 1 1 1 1 1 1 1 1 0 1 3 2 3 4 4 5 6 6 6 6 6 5 5 5 5 5 5 5 5 5 5 5 4 4 3 7 7 4 8 10 10 11 11
1 1 1 1 1 1 1 1 1 0 0 1 1 2 3 2 3 4 5 5 5 5 5 5 5 5 5 4 4 4 4 4 5 5 5 4 4 4 3 4 3 8 10 11 11 11 12
0 0 0 0 0 0 -0 -0 -1 -1 0 1 1 2 2 3 3 4 4 4 4 4 4 4 4 3 3 3 3 2 4 4 5 7 7 7 5 4 2 3 5 7 10 10 10 10 13
-0 -0 -0 -0 -0 -0 -1 -1 -1 -0 -0 0 1 1 2 3 3 4 4 4 4 4 4 4 3 2 2 3 2 1 3 5 5 6 8 8 7 5 4 3 3 8 11 9 10 9 12
-1 -1 -1 -1 -1 -1 -1 -1 -1 -1 -1 -0 -1 -1 1 1 3 2 3 3 3 3 3 3 3 2 2 2 1 3 4 6 4 5 6 6 3 3 4 3 6 9 10 10 4 9 12
-1 -1 -1 -1 -1 -1 -1 -1 -1 -1 -1 -2 -2 -1 -0 0 2 1 1 2 2 2 1 2 1 2 1 1 2 3 4 5 4 6 5 5 5 5 4 2 3 8 10 9 9 10 9
-1 -1 -1 -1 -1 -1 -1 -1 -2 -2 -2 -2 -2 -2 -2 -2 0 0 0 1 1 1 1 -1 0 0 1 1 2 2 1 2 5 4 7 4 4 3 4 5 4 4 6 7 4 7 8

GFSGBSN_850_temp_192.txt.gz
Temp
12 12 12 12 12 12 12 12 12 11 11 11 11 11 12 12 12 12 12 13 13 13 14 13 14 14 14 15 17 18 19 19 18 18 19 20 21 22 23 24 25 25 26 26 26 26 26
12 12 12 12 12 12 12 12 12 11 11 11 11 11 11 11 12 12 12 12 12 13 13 13 13 13 12 15 18 18 18 17 17 18 19 20 20 21 22 23 23 24 25 25 25 25 25
12 13 12 12 12 11 12 12 11 11 11 10 10 10 11 10 11 11 11 12 12 13 13 13 13 12 11 14 17 18 17 18 18 17 18 19 20 20 21 22 23 23 23 24 24 25 25
11 12 12 12 12 12 11 11 11 11 11 10 10 10 10 10 10 11 11 11 11 12 13 12 13 12 12 17 17 17 17 18 18 17 17 18 19 19 20 21 22 22 22 21 24 25 26
11 11 12 12 12 12 12 11 11 11 11 10 10 10 10 10 10 10 10 10 11 11 12 13 12 11 14 16 17 17 17 18 19 18 18 18 18 19 20 20 20 21 21 22 24 27 27
11 11 12 11 12 11 11 11 11 11 10 10 10 10 11 10 10 10 10 10 10 11 12 11 10 13 14 17 18 17 16 17 17 18 19 18 19 19 20 20 20 22 23 24 24 26 27
11 11 11 12 11 11 11 11 10 10 10 9 10 10 10 10 9 9 10 9 10 10 9 14 16 16 18 18 17 17 17 18 17 18 18 20 19 19 21 22 23 23 23 23 24 25 25
10 10 11 11 11 11 11 11 11 10 9 9 10 10 9 10 9 9 8 9 11 10 12 13 14 15 16 17 15 17 17 18 18 17 19 19 19 21 22 22 22 22 22 22 23 24 24
10 11 10 10 10 10 11 11 10 10 10 9 9 9 9 9 8 8 9 9 9 10 12 15 16 16 17 16 16 16 17 17 18 18 18 19 21 22 22 22 21 21 21 21 21 22 23
10 10 10 10 10 10 10 10 10 9 9 9 9 9 7 7 7 7 7 7 8 9 9 14 16 15 15 14 16 16 16 17 18 17 19 19 21 21 21 21 21 20 21 21 21 20 19
10 10 10 10 9 9 9 9 9 9 9 9 8 8 8 5 5 6 5 5 6 7 9 18 16 15 16 15 16 16 16 16 16 18 17 18 20 20 19 19 20 19 19 18 19 19 18
11 11 10 10 9 9 9 8 9 9 9 9 8 7 4 3 4 4 5 5 5 7 9 16 16 15 16 16 16 17 16 15 16 17 18 18 19 19 19 19 18 18 17 17 18 18 16
11 12 12 12 10 10 9 9 7 7 8 8 6 3 3 3 3 4 3 4 5 8 13 15 15 16 16 16 17 17 17 16 16 15 16 18 19 20 20 18 18 17 16 14 15 16 16
12 11 11 11 10 9 9 8 8 4 4 3 2 2 2 3 3 3 2 5 6 8 12 14 16 15 15 17 16 17 16 16 17 17 16 15 15 19 18 17 16 16 16 14 13 14 16
9 10 9 9 9 8 8 7 3 3 3 2 1 1 1 1 1 1 3 5 7 10 12 13 13 13 14 16 15 16 15 15 16 16 14 14 14 17 17 16 15 15 14 16 12 13 13
8 8 9 8 7 7 5 4 3 2 1 1 1 0 1 1 1 1 3 5 7 9 10 10 10 12 13 14 14 14 14 15 14 14 13 13 10 13 14 15 15 14 14 11 12 10 10
8 9 7 6 5 4 3 2 2 2 2 1 1 1 1 1 1 2 4 5 7 9 8 9 9 10 11 11 12 12 12 13 13 12 13 12 10 10 12 12 11 12 11 11 7 8 9
6 5 4 3 3 3 3 2 2 2 1 1 2 2 1 1 3 3 4 7 7 9 8 9 9 9 10 10 10 11 11 12 12 12 10 11 9 8 9 12 13 12 11 11 8 7 8
3 3 3 3 3 3 2 2 1 1 2 2 1 1 1 2 3 3 6 6 8 8 9 8 8 9 10 9 8 9 10 11 11 10 6 7 7 7 8 10 12 11 12 12 11 10 9
2 3 2 2 1 1 1 1 1 1 1 2 2 1 1 1 2 5 6 6 6 7 8 8 8 9 8 8 9 8 8 10 9 9 7 7 6 6 6 7 9 8 9 10 10 8 8
2 1 1 1 1 0 1 1 1 1 1 1 2 2 2 2 2 5 6 6 6 5 6 7 7 7 7 6 7 7 8 9 9 9 8 8 5 6 7 8 8 8 8 9 9 9 8
2 2 1 1 1 1 1 1 1 1 1 3 2 3 3 4 4 4 5 4 6 7 7 7 6 7 7 4 5 5 5 5 5 7 6 7 4 6 5 6 7 7 8 9 9 10 10
0 1 1 0 1 1 1 1 1 1 2 2 2 3 4 4 5 4 4 5 6 7 7 7 7 7 6 6 6 6 6 6 6 5 5 5 4 4 3 5 5 4 6 7 8 10 10
0 0 0 0 1 0 1 1 1 1 2 2 3 4 3 3 5 4 6 6 7 7 6 7 6 6 6 6 5 5 5 5 6 6 6 5 5 4 3 4 2 6 8 9 9 9 8
1 1 0 0 1 1 1 1 1 1 1 2 2 3 3 4 5 5 5 6 6 6 5 5 5 5 5 4 4 3 3 4 5 7 7 7 6 4 3 3 5 6 7 8 7 7 7
1 1 1 1 0 0 0 -0 -0 0 1 1 2 2 2 3 4 5 5 5 4 4 5 5 5 4 3 4 3 2 2 5 5 7 9 8 8 4 2 2 3 7 9 9 10 7 9
0 -0 -0 0 -0 -0 -0 -0 -0 0 1 1 1 1 2 2 4 5 5 4 5 5 4 3 4 4 3 2 2 3 3 6 4 5 6 6 5 3 3 3 4 8 9 9 6 6 6
-1 -1 -0 -0 -1 -1 -0 -0 -0 -0 -0 -0 -0 0 0 1 3 3 3 4 4 4 2 3 3 3 2 1 2 3 3 5 4 5 5 5 4 4 4 3 3 3 5 6 7 7 6
-1 -0 -1 -1 -1 -1 -1 -1 -1 -1 -1 -0 -1 -1 -1 -0 1 1 2 2 3 3 3 2 1 1 2 1 2 1 1 0 2 2 6 3 5 4 4 5 6 5 4 4 5 6 6

GFSGBSN_850_temp_195.txt.gz
Temp
11 13 13 13 13 13 12 12 12 12 12 12 12 12 12 11 12 11 12 12 13 13 13 13 13 13 13 13 15 18 18 18 19 19 19 19 19 20 18 20 20 20 21 23 24 25 25
12 12 12 12 13 13 12 12 12 12 11 11 11 12 12 11 11 11 11 12 12 12 13 13 13 12 12 11 18 17 18 18 18 18 18 18 19 20 20 20 19 21 21 21 22 23 23
11 12 12 12 12 12 12 12 12 12 11 11 11 11 11 11 11 11 11 11 11 12 12 12 12 12 11 15 17 18 17 18 18 18 18 18 18 19 20 18 20 21 18 19 20 22 21
11 12 11 12 11 12 12 12 12 12 12 11 11 11 11 10 10 10 10 10 11 11 12 12 12 11 11 17 16 17 18 18 18 18 17 17 18 18 18 19 19 18 18 17 20 21 22
11 11 11 11 11 11 12 12 12 12 11 11 11 11 11 10 10 10 10 10 10 11 11 11 12 11 12 15 16 18 17 17 18 18 18 18 18 18 18 16 14 16 15 16 19 21 21
11 11 11 11 11 11 11 11 11 12 11 11 11 11 10 10 10 10 10 10 10 10 11 11 11 10 13 17 17 18 17 17 17 17 18 18 17 15 14 14 14 16 16 18 18 21 21
11 11 11 11 11 11 11 11 11 11 11 10 10 10 10 9 9 9 9 9 9 10 9 12 13 13 17 18 18 17 17 17 17 17 15 17 14 13 15 15 17 18 18 18 19 20 20
9 11 11 11 10 11 11 11 11 11 10 10 10 10 9 9 9 9 9 8 9 9 9 11 13 13 14 17 16 17 17 17 17 15 15 14 14 16 18 18 19 19 18 18 19 20 20
8 10 11 10 10 10 10 11 11 11 10 10 10 10 9 9 9 8 8 9 9 8 9 11 12 13 14 15 15 16 16 16 15 15 15 14 16 18 18 18 18 18 18 17 17 18 18
7 8 9 10 10 10 10 10 10 10 10 10 9 9 9 8 8 7 7 7 7 8 7 10 13 13 14 16 15 16 16 16 16 15 15 15 17 17 17 17 18 17 18 16 16 15 14
6 8 9 9 10 10 10 10 10 10 10 9 9 9 9 9 8 6 7 7 6 8 9 14 15 16 16 15 16 16 16 16 14 15 16 15 17 16 15 17 17 16 15 15 15 14 13
5 7 9 9 9 10 9 10 9 9 9 9 9 9 8 8 8 7 5 5 6 6 8 11 15 15 14 14 15 16 16 16 16 14 15 14 17 16 16 17 18 17 15 14 14 13 11
4 5 7 8 9 10 10 9 10 9 8 8 8 9 9 8 7 6 5 5 5 6 9 11 14 15 14 14 15 16 14 14 13 13 12 15 15 16 17 15 16 15 14 10 11 10 12
3 5 7 7 8 9 9 9 9 9 9 8 8 8 5 6 6 4 4 4 6 7 9 12 15 15 14 15 15 15 15 14 15 15 14 12 12 16 15 13 12 14 13 9 10 10 10
4 5 6 7 8 8 9 10 9 9 8 5 3 2 3 3 4 3 4 5 7 7 8 9 12 14 13 15 14 15 14 14 14 12 11 10 13 14 14 13 13 12 10 12 11 10 8
3 4 6 7 8 8 8 8 9 9 8 5 3 2 1 3 3 3 2 5 4 7 9 9 11 11 11 11 11 12 13 13 12 12 11 10 8 12 12 13 13 12 12 8 8 8 8
2 4 7 7 7 8 8 9 8 6 3 2 2 1 0 1 1 0 3 4 4 7 8 7 8 8 9 9 10 11 12 11 12 11 11 10 7 8 10 11 10 9 8 8 7 6 6
4 6 6 7 7 8 7 8 5 3 2 3 1 1 0 -0 1 1 3 4 6 6 6 6 7 7 8 9 9 10 10 11 11 10 8 7 7 6 8 10 10 9 9 9 3 5 5
7 5 7 8 8 8 7 5 3 3 2 2 1 1 0 1 3 2 3 4 6 6 6 6 6 8 9 8 7 9 9 10 10 8 6 7 5 4 6 8 9 8 9 8 7 5 5
7 7 7 7 6 5 4 3 2 2 1 2 1 1 1 1 2 3 3 3 4 8 8 8 8 8 8 7 8 7 8 9 9 7 7 6 6 5 4 6 6 5 6 7 6 4 5
4 4 4 3 3 2 2 2 1 1 0 1 2 1 1 1 1 4 5 5 5 5 7 7 6 7 7 5 6 6 7 6 6 7 7 5 3 5 5 6 5 5 5 6 5 5 4
2 2 2 2 2 2 0 0 1 0 1 2 1 1 3 2 3 3 3 4 4 6 6 6 5 7 5 3 5 3 5 5 4 5 5 5 2 4 3 4 5 4 5 5 6 6 6
0 0 1 1 0 1 1 1 0 0 2 2 2 3 4 3 2 2 3 5 6 7 6 7 6 5 4 4 5 5 5 5 4 4 3 2 1 1 1 3 3 1 4 4 4 5 5
1 1 1 1 1 0 1 0 0 1 2 3 3 3 3 2 2 3 5 5 6 6 5 6 7 5 5 5 5 5 5 5 4 4 4 2 2 -0 0 2 -1 3 6 6 6 6 7
0 0 0 0 1 1 1 0 0 2 3 3 3 4 4 1 3 4 5 5 6 5 5 5 5 5 5 4 0 1 -0 1 3 4 4 4 2 -1 0 1 3 4 5 5 5 4 7
1 1 1 1 2 1 0 0 1 2 2 2 3 3 3 1 2 5 3 5 0 1 3 5 5 4 4 -1 -2 -1 -1 3 3 5 5 5 4 2 2 1 1 4 4 4 6 4 6
1 1 1 1 1 0 0 1 1 1 2 2 2 2 3 3 4 4 1 2 5 2 -2 2 3 3 3 -4 -3 -1 0 3 2 2 3 2 -0 1 1 1 2 4 4 5 2 3 4
0 0 0 0 0 0 0 0 0 1 1 2 1 2 3 2 2 3 3 3 3 4 -3 2 -0 -0 -3 -4 -3 -3 -0 1 1 2 2 2 -1 -2 0 -1 -1 5 4 3 4 4 4
-0 -0 -0 -0 0 -0 -0 -0 0 0 1 1 0 1 1 1 1 1 2 3 3 3 3 2 1 0 1 -4 -4 -3 -2 -3 -0 -0 3 0 1 1 1 -0 2 4 5 5 4 3 3

GFSGBSN_850_temp_201.txt.gz
Temp
11 11 12 12 12 12 13 13 13 13 13 13 13 13 13 12 13 12 12 12 12 12 11 12 12 12 14 13 15 17 17 17 18 17 17 18 18 17 16 16 17 16 16 18 19 19 19
10 11 11 11 11 12 12 13 12 12 13 13 13 13 13 12 12 12 12 11 11 11 11 11 11 12 12 10 17 17 16 17 17 17 17 17 17 17 17 16 16 17 17 16 18 18 18
9 10 10 11 11 11 12 12 12 12 12 12 12 12 12 12 12 12 11 11 11 10 10 10 10 11 11 12 16 16 17 17 17 17 17 17 17 17 17 15 17 17 15 14 16 18 18
8 9 9 10 10 11 11 11 11 12 12 12 12 12 12 12 12 12 11 11 10 10 10 10 10 10 10 15 16 17 17 17 16 16 17 17 17 17 16 17 16 15 15 14 17 18 19
5 6 8 9 9 10 11 11 11 11 12 12 12 12 11 11 11 11 11 10 10 9 9 9 9 9 10 14 16 17 17 17 17 17 17 18 17 17 16 13 12 12 13 13 15 17 18
5 5 6 7 9 9 10 10 10 11 11 11 11 11 11 11 10 10 10 9 9 9 9 9 8 8 13 15 15 16 17 17 17 17 17 17 17 13 10 11 12 12 12 13 14 16 16
3 4 4 6 8 9 9 9 10 10 10 11 11 11 11 11 10 9 8 8 8 9 8 10 11 12 15 15 15 16 16 16 16 16 13 15 12 12 12 12 14 14 13 13 14 15 15
3 3 4 4 6 7 9 9 9 10 10 10 10 10 11 10 10 9 8 8 9 9 8 10 10 10 13 14 11 14 16 15 15 13 13 13 12 14 13 13 13 13 13 13 14 15 15
2 2 3 4 5 5 7 8 8 9 10 10 10 10 10 10 9 8 8 9 8 8 8 10 10 10 11 12 12 12 14 15 13 12 12 12 13 14 14 13 13 13 13 13 13 14 14
2 2 2 4 4 5 6 7 8 9 9 10 10 9 9 9 8 7 7 8 8 8 8 11 10 11 10 11 12 13 13 14 13 13 12 11 14 14 13 13 13 12 13 14 14 13 12
1 1 2 3 4 4 5 6 8 8 9 9 10 9 9 9 7 7 7 8 8 8 9 12 12 13 12 11 13 13 13 13 13 13 13 13 13 12 13 13 14 13 14 13 13 12 12
1 1 2 2 3 3 4 5 6 8 8 9 9 10 9 8 8 7 7 7 7 7 7 10 12 11 11 12 13 14 13 14 14 13 13 12 15 14 13 14 13 14 14 11 10 10 10
1 1 1 2 3 3 3 4 6 7 8 9 9 10 9 9 7 7 7 7 6 7 9 10 11 13 12 11 12 14 12 12 12 11 11 12 12 13 14 13 13 13 11 10 10 9 11
0 1 1 1 2 3 3 4 5 6 7 9 9 9 9 9 7 7 7 7 7 9 9 11 12 12 12 13 12 13 12 11 11 12 9 10 10 11 13 13 13 11 12 9 11 10 10
0 1 1 1 2 2 3 3 4 6 7 7 8 8 7 6 7 7 7 7 8 10 10 11 12 10 11 13 13 13 11 11 12 11 10 9 10 11 11 11 12 11 10 11 8 8 8
0 1 1 1 1 2 2 3 4 5 6 7 8 6 6 6 6 6 7 7 7 9 9 10 10 9 9 11 12 12 12 11 10 10 9 9 9 10 10 11 11 11 11 10 8 9 9
0 1 1 1 1 2 2 3 4 5 5 7 7 5 5 6 5 6 5 5 5 5 8 9 10 9 9 10 10 11 11 9 9 8 8 8 8 8 10 10 9 9 8 7 7 6 6
-0 1 1 1 1 1 2 3 4 5 4 7 5 4 4 5 5 5 3 4 5 5 5 6 6 8 7 9 8 9 8 9 9 8 8 7 6 7 8 9 9 8 8 6 4 4 2
0 0 1 1 1 2 2 2 3 4 3 5 4 1 4 4 4 3 4 4 4 4 4 4 5 7 8 8 6 9 8 7 8 7 6 6 4 5 6 7 7 7 7 6 5 3 3
-0 0 0 0 1 1 2 2 3 3 3 5 2 1 -0 2 1 4 3 4 4 4 4 4 4 6 7 6 6 6 7 6 7 7 7 7 5 7 8 7 6 5 6 5 4 0 4
1 1 0 1 0 1 2 2 3 2 4 5 1 0 1 2 1 3 4 4 4 4 3 3 3 5 4 4 4 5 5 6 6 6 5 5 5 5 5 5 5 4 4 4 4 4 3
2 1 1 0 1 2 2 2 3 3 4 4 -1 0 1 4 2 3 3 3 4 3 3 3 4 4 4 3 4 3 4 5 5 5 4 4 3 4 4 4 4 3 4 4 4 4 4
4 1 0 1 2 2 2 3 3 4 3 1 1 3 4 2 2 3 2 3 3 4 4 4 5 4 4 4 4 4 4 4 4 4 3 3 2 3 2 3 2 0 3 3 3 4 4
0 1 1 1 1 2 2 2 2 3 3 4 2 4 2 2 2 2 3 3 3 4 3 5 5 3 3 4 4 4 4 4 4 3 3 2 2 0 -1 1 -4 2 4 4 3 4 3
-0 -0 0 0 0 1 1 2 2 2 3 4 3 3 1 2 2 2 2 2 3 4 4 4 4 4 4 4 1 1 1 2 3 3 2 2 1 -1 -4 -1 1 3 3 3 2 2 3
-0 -0 -0 -0 -0 -0 0 1 2 2 2 2 0 2 3 2 1 1 1 2 1 1 0 1 3 4 4 -0 -0 1 1 3 3 3 3 2 1 -0 -3 -4 -3 2 3 4 2 1 2
-1 -0 -1 -0 -0 -0 0 1 1 1 1 2 3 4 4 1 0 1 -0 0 2 1 1 1 2 2 3 -2 -0 0 1 2 2 2 1 0 -2 -1 -1 -2 0 2 2 4 1 1 4
0 1 1 1 1 2 2 2 3 3 3 4 3 5 5 1 1 3 3 2 2 2 0 1 1 -0 -3 -4 -2 -2 0 1 1 2 2 1 -3 -4 -4 -4 -1 1 2 2 2 2 3
-0 0 1 1 2 3 3 3 4 4 4 5 3 3 3 2 0 3 3 4 4 4 2 0 0 -2 -2 -4 -4 -4 -2 -4 -0 -0 1 -1 -0 -1 -2 -3 0 1 3 3 4 2 3